SCP
0 0 0 0 0 0 0 0 0 0 0 0 0 0 0 0 0 0 0 0 0 0 0 0 0 0 0 0 0 0 0 0 0 0 0 0 0 0 0 0 0 0 0
0 0 0 0 0 0 0 0 0 0 0 0 0 0 0 0 0 0 0 0 0 0 0 0 0 0 0 0 0 0 0 0 0 0 0 0 0 0 0 0 0 0 0
0 0 0 0 0 0 0 0 0 0 0 0 0 0 0 0 0 0 0 0 0 0 0 0 0 0 0 0 0 0 0 0 0 0 0 0 0 0 0 0 0 0 0
0 0 0 0 0 0 0 0 0 0 0 0 0 0 0 0 0 0 0 0 0 0 0 0 0 0 0 0 0 0 0 0 0 0 0 0 0 0 0 0 0 0 0
0 0 0 0 0 0 0 0 0 0 0 0 0 0 0 0 0 0 0 0 0 0 0 0 0 0 0 0 0 0 0 0 0 0 0 0 0 0 0 0 0 0 0
0 0 0 0 0 0 0 0 0 0 0 0 0 0 0 0 0 0 0 0 0 0 0 0 0 0 0 0 0 0 0 0 0 0 0 0 0 0 0 0 0 0 0
0 0 0 0 0 0 0 0 0 0 0 0 0 0 0 0 0 0 0 0 0 0 0 0 0 0 0 0 0 0 0 0 0 0 0 0 0 0 0 0 0 0 0
0 0 0 0 0 0 0 0 0 0 0 0 0 0 0 0 0 0 0 0 0 0 0 0 0 0 0 0 0 0 0 0 0 0 0 0 0 0 0 0 0 0 0
0 0 0 0 0 0 0 0 0 0 0 0 0 0 0 0 0 0 0 0 0 0 0 0 0 0 0 0 0 0 0 0 0 0 0 0 0 0 0 0 0 0 0
0 0 0 0 0 0 0 0 0 0 0 0 0 0 0 0 0 0 0 0 0 0 0 0 0 0 0 0 0 0 0 0 0 0 0 0 0 0 0 0 0 0 0
0 0 0 0 0 0 0 0 0 0 0 0 0 0 0 0 0 0 0 0 0 0 0 0 0 0 0 0 0 0 0 0 0 0 0 0 0 0 0 0 0 0 0
0 0 0 0 0 0 0 0 0 0 0 0 0 0 0 0 0 0 0 0 0 0 0 0 0 0 0 0 0 0 0 0 0 0 0 0 0 0 0 0 0 0 0
0 0 0 0 0 0 0 0 0 0 0 0 0 0 0 0 0 0 0 0 0 0 0 0 0 0 0 0 0 0 0 0 0 0 0 0 0 0 0 0 0 0 0
0 0 0 0 0 0 0 0 0 0 0 0 0 0 0 0 0 0 0 0 0 0 0 0 0 0 0 0 0 0 0 0 0 0 0 0 0 0 0 0 0 0 0
0 0 0 0 0 0 0 0 0 0 0 0 0 0 0 0 0 0 0 0 0 0 0 0 0 0 0 0 0 0 0 0 0 0 0 0 0 0 0 0 0 0 0
0 0 0 0 0 0 0 0 0 0 0 0 0 0 0 0 0 0 0 0 0 0 0 0 0 0 0 0 0 0 0 0 0 0 0 0 0 0 0 0 0 0 0
0 0 0 0 0 0 0 0 0 0 0 0 0 0 0 0 0 0 0 0 0 0 0 0 0 0 0 0 0 0 0 0 0 0 0 0 0 0 0 0 0 0 0
0 0 0 0 0 0 1 1 1 1 1 0 0 0 0 0 0 0 0 0 0 0 0 0 0 0 0 0 0 0 0 0 0 0 0 0 0 0 0 0 0 0 0
1 1 1 0 0 0 1 1 1 1 1 1 1 1 1 1 0 0 0 0 0 0 0 0 0 0 0 0 0 0 0 0 0 0 0 0 0 0 0 0 0 0 0
1 1 1 0 0 0 1 1 1 1 1 1 1 1 1 1 1 1 1 1 0 0 0 0 0 0 0 0 0 0 0 0 0 0 0 0 0 0 0 0 0 0 0
0 1 1 0 0 0 0 0 0 1 1 1 1 1 1 1 0 0 0 0 0 0 0 0 0 0 0 0 0 0 0 0 0 0 0 0 0 0 0 0 0 0 0
0 1 1 1 0 0 0 0 0 0 0 0 0 1 0 0 0 0 0 0 0 0 0 0 0 0 0 0 0 0 0 0 0 1 0 0 0 0 0 0 0 0 0
1 1 1 1 0 0 0 0 0 0 0 0 0 0 0 0 0 0 0 0 0 0 0 0 1 0 1 1 1 0 0 0 1 1 1 0 0 0 0 0 0 0 0
1 1 1 1 0 0 0 0 0 0 0 0 0 0 0 0 0 0 0 0 0 0 0 0 0 0 0 0 1 1 1 1 1 1 1 0 0 0 0 0 0 0 0
1 1 1 0 0 0 0 0 0 0 0 0 0 0 0 0 0 0 0 0 0 0 0 0 0 0 0 0 0 0 1 1 1 1 1 0 0 0 0 0 0 0 0
1 1 0 0 0 0 0 0 0 0 0 0 0 0 0 0 0 0 0 0 0 0 0 0 0 0 0 0 0 0 0 1 1 1 1 1 0 0 0 0 0 0 0
Wind_Speed
3 4 4 3 3 3 3 3 3 4 3 3 2 2 1 1 1 0 3 7 5 3 3 3 3 4 5 6 7 7 8 9 8 8 8 8 9 9 8 7 7 7 8
4 4 3 3 3 3 4 3 3 3 2 2 2 2 1 1 1 0 0 5 7 5 3 3 2 3 3 5 5 6 7 8 8 8 8 8 8 8 8 8 8 7 8
4 3 3 3 3 3 3 2 3 2 2 2 2 2 1 1 1 1 1 1 3 7 5 3 2 2 2 4 4 4 5 7 7 7 7 8 8 9 9 9 8 8 8
3 2 2 3 2 2 2 2 2 2 2 2 1 1 1 1 0 0 0 0 1 0 5 5 2 2 1 2 3 3 4 4 6 6 7 7 8 8 9 9 8 8 8
3 2 2 2 1 2 2 2 3 2 2 1 1 1 0 1 0 0 1 0 1 1 0 6 5 3 2 2 2 3 3 4 4 5 6 7 7 8 9 9 9 8 8
2 1 2 2 1 2 2 2 2 1 1 0 0 1 0 1 0 1 1 0 1 0 0 1 3 5 5 3 2 2 2 2 4 4 5 5 6 7 8 8 8 8 8
2 1 1 1 0 1 1 1 0 1 0 0 1 1 2 2 1 1 0 1 1 0 0 0 1 0 3 6 3 2 3 3 3 4 5 6 5 6 6 8 8 8 8
1 1 1 1 0 0 1 0 1 1 0 0 1 1 2 3 2 1 1 0 1 1 1 1 0 1 2 1 3 4 4 4 4 4 4 5 5 6 6 7 7 7 7
1 1 1 1 1 1 1 1 1 2 1 1 1 3 2 1 0 2 1 0 0 1 1 0 1 1 2 2 1 4 3 3 4 5 5 5 5 5 6 7 8 9 8
0 1 1 1 2 2 1 2 0 2 2 2 0 1 2 3 3 1 2 1 1 1 1 2 1 1 1 1 1 2 1 3 4 5 5 5 5 5 5 6 7 8 8
1 1 1 1 1 2 1 2 1 2 2 2 2 1 1 1 3 3 2 2 1 1 1 2 1 1 1 1 0 2 2 1 2 3 3 4 4 5 5 5 6 6 7
1 0 1 1 2 1 1 2 2 2 2 2 3 2 2 2 2 2 3 3 3 2 2 2 2 1 1 1 1 4 2 1 1 2 3 3 4 4 4 4 5 5 6
1 0 1 2 2 2 2 2 2 2 3 2 3 2 2 2 3 3 4 4 4 3 2 3 2 2 2 1 1 2 2 1 0 1 2 3 3 3 3 3 4 5 5
1 1 1 2 2 2 2 2 3 3 2 3 3 3 3 2 2 3 3 4 5 4 3 2 1 1 1 2 2 2 1 3 1 1 2 3 2 2 2 3 3 3 4
2 1 2 2 2 2 2 2 2 2 2 3 3 3 3 2 3 3 3 4 5 5 4 2 2 1 2 1 1 3 2 3 3 3 3 3 2 2 2 3 2 3 3
3 2 2 2 2 2 2 2 3 2 2 3 2 2 3 3 2 3 3 3 4 5 5 2 2 2 1 2 1 3 3 3 5 5 4 3 3 3 3 3 3 3 3
2 2 2 2 2 2 2 2 3 3 3 3 3 3 3 3 3 3 3 3 4 4 5 4 3 2 2 4 2 4 4 4 4 6 5 4 4 4 4 4 4 4 4
2 2 2 2 2 2 2 2 3 3 3 4 4 4 4 3 4 4 4 4 4 4 5 6 4 3 4 4 4 5 4 4 4 6 7 6 5 5 5 5 5 4 4
2 2 2 2 2 2 2 3 3 4 4 4 4 4 4 4 5 4 5 5 4 4 5 6 5 3 4 3 4 5 5 4 5 4 8 8 7 7 6 6 5 5 5
2 2 2 2 2 3 3 3 3 3 4 4 4 4 4 4 5 5 5 5 5 6 5 6 6 4 4 3 4 4 4 4 4 4 3 4 7 9 9 8 7 6 6
2 1 2 2 2 2 2 2 3 3 4 4 4 4 4 3 4 5 5 5 5 6 5 5 5 4 4 3 4 4 5 4 4 4 4 4 4 5 6 9 9 7 6
2 2 2 2 3 2 3 3 4 4 4 4 4 4 4 3 3 4 5 6 7 7 7 6 5 5 5 5 4 5 5 5 5 3 4 5 4 4 4 4 5 7 7
2 2 2 3 2 1 1 2 4 5 4 4 4 4 4 3 4 4 4 7 7 8 8 8 7 7 6 4 5 6 5 6 5 3 4 5 5 5 4 2 6 7 8
2 2 2 2 2 1 1 2 4 5 4 4 4 4 5 5 4 6 6 5 6 5 6 6 6 7 6 5 6 7 6 6 6 4 4 6 5 5 4 3 6 8 8
2 2 2 2 2 1 0 2 5 4 3 4 4 4 4 4 3 5 6 5 6 5 3 4 5 6 6 6 6 6 6 6 5 4 3 5 5 5 5 4 3 8 9
3 3 2 2 2 2 0 1 4 4 3 4 3 3 1 3 3 4 5 5 6 5 5 4 4 6 7 7 7 7 6 6 5 4 2 4 5 5 4 3 3 3 5
Wind_Direction
58 57 51 40 45 65 86 85 84 89 99 110 108 100 84 84 94 177 129 142 158 176 189 197 205 205 204 206 205 207 202 201 200 201 201 203 207 208 210 209 209 213 214
60 52 61 49 52 55 58 67 84 94 90 90 101 95 62 95 128 234 132 144 157 171 187 194 207 208 210 212 211 209 208 205 204 204 202 203 205 205 208 212 214 217 216
69 63 62 56 54 61 76 84 88 95 108 108 104 105 109 61 59 54 339 321 160 164 169 180 200 215 223 207 204 202 205 205 203 204 208 208 208 208 210 213 215 216 219
70 66 62 55 52 57 73 91 93 90 83 80 90 76 94 117 82 74 137 77 335 86 158 166 182 203 199 199 196 195 198 203 207 207 212 211 208 208 211 214 214 219 223
72 72 72 59 55 74 69 70 85 73 90 80 116 126 104 102 98 49 34 88 94 337 11 145 167 181 181 190 197 199 198 203 204 212 219 219 216 212 213 215 217 221 224
70 58 100 84 56 82 80 68 76 79 57 80 1 65 44 38 13 58 299 119 126 188 357 55 171 174 176 181 184 203 211 211 208 210 221 227 227 220 218 217 220 221 221
56 49 43 89 136 98 92 130 177 141 133 69 224 177 165 171 129 140 184 341 92 119 28 354 286 308 169 173 184 209 220 224 218 214 221 229 234 230 230 224 222 223 225
6 38 38 315 24 133 153 190 234 277 219 167 289 269 203 168 168 146 157 184 325 276 218 202 187 249 277 196 150 190 217 232 229 221 220 224 226 232 235 232 228 226 224
359 15 353 325 310 263 183 240 239 254 282 249 301 306 302 354 75 155 148 115 333 309 288 263 213 228 242 243 199 168 199 233 237 235 232 228 228 231 238 236 233 227 220
292 269 279 296 288 301 312 257 134 284 278 284 228 294 331 345 302 268 190 154 187 241 285 285 264 184 234 236 153 65 159 224 238 239 239 236 233 239 242 243 239 225 219
226 250 244 254 265 283 311 318 311 289 281 297 303 298 285 256 275 293 306 304 264 238 246 257 262 261 253 268 253 74 132 204 240 241 245 250 250 252 252 250 241 226 223
207 235 252 262 255 270 234 242 261 251 285 303 301 299 295 295 297 290 289 283 292 284 262 264 260 257 253 244 72 69 97 135 243 254 256 260 255 254 256 257 248 240 236
252 49 292 265 271 266 251 243 233 263 260 268 274 281 294 282 293 292 290 297 298 282 254 237 228 247 254 256 112 104 123 115 275 257 257 261 257 252 255 260 260 253 248
309 341 283 273 269 263 252 239 243 238 240 256 268 286 280 279 284 280 284 292 289 277 252 251 231 233 284 277 66 223 180 150 200 238 252 247 246 253 256 260 262 253 250
288 287 277 274 274 270 270 257 256 256 248 254 257 252 275 285 272 281 281 282 285 289 285 240 234 221 254 272 114 260 259 157 196 221 238 240 235 243 252 253 253 253 251
309 299 289 284 279 267 250 251 243 234 255 257 273 294 284 280 291 277 276 277 275 283 288 295 270 263 298 283 204 270 267 182 200 207 215 227 227 231 235 237 240 244 247
291 291 294 292 279 268 262 258 264 243 249 252 253 248 259 285 285 285 276 271 273 272 273 277 276 263 257 276 269 265 255 250 218 191 201 214 226 230 229 227 231 237 245
278 283 284 278 271 268 263 265 272 267 259 254 252 257 262 260 264 274 280 278 277 276 273 278 276 263 252 255 259 263 266 262 261 174 186 208 218 224 225 227 228 230 235
287 279 269 271 276 281 279 278 277 277 274 272 272 267 265 265 266 271 270 272 272 265 264 268 269 266 260 258 264 261 264 264 264 197 188 197 206 216 219 219 223 223 226
283 292 284 274 272 276 282 292 291 284 279 279 279 277 274 270 270 273 270 269 271 273 264 264 267 259 255 252 256 262 260 247 258 260 234 216 198 204 211 211 215 218 220
275 289 289 287 285 278 311 326 297 285 284 284 283 281 283 296 310 296 294 292 283 274 271 268 268 266 262 262 260 267 270 263 250 258 256 240 219 224 215 210 210 215 219
269 275 275 277 281 315 39 357 306 296 289 289 289 287 274 251 259 250 261 273 280 277 280 279 276 276 269 266 271 272 276 274 268 250 259 259 251 249 241 235 184 193 211
250 269 285 289 297 345 49 324 305 293 292 297 296 293 295 317 293 293 257 238 245 248 259 271 281 282 280 278 273 269 272 278 282 279 267 264 259 261 258 228 168 194 208
251 257 268 281 283 314 66 308 298 275 280 282 284 288 293 301 325 318 303 300 289 272 258 255 272 280 284 283 273 268 271 267 261 257 263 273 271 269 267 253 183 196 207
247 250 257 267 270 288 52 305 294 279 275 279 281 290 295 302 344 316 294 294 293 289 263 255 261 267 278 278 277 273 267 264 265 258 254 269 274 275 269 261 209 192 205
248 257 267 276 274 288 297 264 278 280 290 286 274 266 266 295 323 316 294 298 298 303 305 294 267 250 249 245 238 250 262 265 268 268 256 261 272 282 279 267 268 235 218